Regional Weather Roundup
Issued by NWS State College, PA

Home | Current Version | Previous Version | Graphics & Text | Print | Product List | Glossary Off
Versions: 1 2 3 4 5 6 7 8 9 10 11 12 13 14 15 16 17 18 19 20 21 22 23 24 25 26 27 28 29 30 31 32 33 34 35 36 37 38 39 40 41 42 43 44 45 46 47 48 49 50

000
ASUS41 KCTP 060203
RWRCTP

REGIONAL WEATHER ROUNDUP
NATIONAL WEATHER SERVICE STATE COLLEGE PA
900 PM EST THU MAR 05 2015

Note: "fair" indicates few or no clouds below 12,000 feet with no
significant weather and/or obstructions to visibility.

* = STATION THAT DOES NOT REPORT PRECIPITATION /E.G. RAIN...SNOW...ETC/
    THUNDER OR FOG.

PAZ002>004-007>009-013>016-020>023-029>032-060300-
WESTERN PENNSYLVANIA

CITY           SKY/WX    TMP DP  RH WIND       PRES   REMARKS
ERIE           MOCLDY    10  -2  58 W6        30.50R WCI   0
MEADVILLE      PTCLDY     5  -3  69 CALM      30.42R
FRANKLIN*      PTCLDY     5  -6  61 NW6       30.42R WCI  -6
NEW CASTLE     FAIR       7  -3  63 CALM      30.49R
BEAVER COUNTY  CLEAR      9   0  66 CALM      30.45
BUTLER*        CLEAR      9  -2  61 NW7       30.45R WCI  -3
PITTSBURGH INT PTCLDY    10  -1  61 N9        30.45R WCI  -3
PITTSBURGH     CLEAR     11  -2  56 NW9       30.43R WCI  -2
INDIANA*       PTCLDY     9   0  66 W5        30.45R WCI   0
LATROBE        CLEAR      9   1  72 NW3       30.46R
WASHINGTON CO* CLEAR      3  -2  78 CALM      30.46R
$$

PAZ004>006-010>012-017>019-024>028-033>037-041-042-045-046-049>053-060300-
CENTRAL PENNSYLVANIA

CITY           SKY/WX    TMP DP  RH WIND       PRES   REMARKS
BRADFORD       CLEAR      2  -7  66 W9        30.30R WCI -13
DUBOIS         CLEAR      6  -4  63 NW9       30.34R WCI  -8
CLEARFIELD     CLEAR     10  -3  55 W7        30.36R WCI  -1
JOHNSTOWN      CLEAR      7  -3  64 NW12      30.29R WCI  -8
ALTOONA        PTCLDY    12  -1  56 NW14      30.35R WCI  -3
STATE COLLEGE  CLEAR     14  -2  48 NW9       30.37R WCI   2
WILLIAMSPORT   PTCLDY    17  -1  45 N3        30.38R
SELINSGROVE    MOCLDY    19   2  47 N5        30.38R WCI  12
FT INDIANTOWN  MOCLDY    20   3  46 NW1       30.36R
CAPITAL CITY   CLOUDY    21   5  50 W7        30.38R WCI  12
HARRISBURG     CLOUDY    21  14  74 W5        30.37R WCI  15
YORK           CLOUDY    19  14  81 CALM      30.36R
$$

PAZ038>040-043-044-047-048-054-055-060>062-067>071-060300-
EASTERN PENNSYLVANIA

CITY           SKY/WX    TMP DP  RH WIND       PRES   REMARKS
SCRANTON       MOCLDY    15   0  51 NW14      30.32R WCI   0
MOUNT POCONO   CLOUDY    11   0  61 NW12G24   30.19R WCI  -3
ALLENTOWN      CLOUDY    19   4  51 NW9       30.34R WCI   8
QUAKERTOWN*    CLOUDY    18   7  62 N6        30.33R WCI   9
READING        CLOUDY    20   8  60 NW10      30.35R WCI   9
LANCASTER      CLOUDY    19  12  74 W6        30.35R WCI  11
COATESVILLE    CLOUDY    21  12  68 NW8       30.33R WCI  12
POTTSTOWN      CLOUDY    19  10  68 NW6       30.36R WCI  11
BLUE BELL      CLOUDY    21  16  79 CALM      30.34R
DOYLESTOWN     CLOUDY    17   8  67 NW10      30.32R WCI   5
WILLOW GROVE   NOT AVBL
NORTH PHILA    CLOUDY    22  12  65 NW9       30.35R WCI  12
PHILADELPHIA   CLOUDY    22  12  65 NW9       30.37R WCI  12
$$



USA.gov is the U.S. government's official web portal to all federal, state and local government web resources and services.